Home > Time Zones > World Clock > Weather > China > Hefei > Past weeks

Flag for China Weather past 2 weeks in Hefei, China

Now
61 °F

Passing clouds.


Feels Like: 61 °F
Forecast: 54 / 58 °F
Wind: 6 mph from East

Location: Hefei Airport


UV Index: 0 (Low)

Visibility: 4 mi


Pressure: 30.01 "Hg

Humidity: 83%

Dew point: 55 °F

Location of HefeiLocation

Historic Weather in Hefei

°F

Hefei temperature yesterday

Maximum temperature yesterday: 55 °F (at 12:00 AM)
Minimum temperature yesterday: 54 °F (at 6:00 AM)
Average temperature yesterday: 55 °F

Past Weeks' High & Low Weather Summary

 TemperatureHumidityPressure
High82 °F (Apr 10, 12:00 PM)100% (Apr 8, 5:00 AM)30.27 "Hg (Apr 8, 5:00 AM)
Low46 °F (Apr 6, 5:00 AM)30% (Apr 6, 3:00 PM)29.77 "Hg (Apr 17, 4:00 AM)
Average61 °F80%29.99 "Hg
* Reported Apr 5 6:00 PM — Apr 20 6:00 PM, Hefei, Weather by CustomWeather, © 2014

Note: Actual official high and low records may vary slightly from our data, if they occured in-between our weather recording intervals... More about our weather records

Advertising

Historic Weather Conditions — Data for Previous 24 hours

 ConditionsComfort  
Time TempWeatherWind HumidityBarometerVisibility
6:00 PM
Apr 20
63 °FMore clouds than sun.6 mph77%30.01 "Hg5 mi
5:00 PM63 °FScattered clouds.8 mph73%29.98 "HgN/A
4:00 PM64 °FPartly sunny.8 mph68%29.98 "HgN/A
3:00 PM64 °FPartly sunny.6 mph73%30.01 "HgN/A
2:00 PM64 °FPartly sunny.3 mph68%30.04 "HgN/A
1:00 PM64 °FPartly sunny.6 mph68%30.07 "HgN/A
12:00 PM63 °FBroken clouds.6 mph73%30.07 "HgN/A
11:00 AM61 °FMostly cloudy.6 mph83%30.09 "Hg5 mi
10:00 AM61 °FFog.8 mph83%30.09 "Hg3 mi
9:00 AM59 °FFog.8 mph88%30.07 "Hg2 mi
8:00 AM57 °FFog.6 mph100%30.07 "Hg2 mi
7:00 AM55 °FFog.3 mph100%30.07 "Hg1 mi
6:00 AM55 °FFog.3 mph100%30.07 "Hg1 mi
5:00 AM55 °FLight rain. Fog.3 mph100%30.07 "Hg1 mi
4:00 AM55 °FFog.3 mph94%30.07 "Hg1 mi
3:00 AM55 °FFog.3 mph94%30.07 "Hg1 mi
2:00 AM55 °FFog.3 mph94%30.07 "Hg2 mi
1:00 AM55 °FLight rain. Fog.3 mph94%30.07 "Hg2 mi
12:00 AM55 °FLight rain. Fog.3 mph94%30.07 "Hg2 mi
11:00 PM
Apr 19
55 °FFog.3 mph94%30.07 "Hg2 mi
10:00 PM55 °FFog.3 mph94%30.07 "Hg2 mi
9:00 PM55 °FFog.1 mph94%30.07 "Hg1 mi
8:00 PM55 °FFog.1 mph94%30.07 "Hg1 mi
7:00 PM55 °FFog.10 mph94%30.04 "Hg1 mi
Weather by CustomWeather, © 2014

See weather overview